Погода в Зайчиках

Россия / Вологодская область     59°35′57″N   44°07′16″E
темп.,
°C
ветер,
м/с
пор.,
м/с
влажн.,
%
обл.,
%
осадки,
мм/ч
давл.,
гПа
погр.,
м
21 апреля, ср
ср2100:00+1вюв4127943 0.0 1025339
03:00+1вюв41474100 0.0 1023408
06:00+2вюв61661100 0.0 1020649
09:00+5юв71650100 0.0 10161003
12:00+2юв71693100 0.6 1015995
15:00+2юв71689100 0.8 1013867
18:00+3юв71686100 0.1 1011925
21:00+3юв71589100 0.1 1011933
22 апреля, чт
чт2200:00+3ююв51393100 0.1 1010812
03:00+3ю3997100 0.1 1011610
06:00+3ююз3892100 0.1 1012582
09:00+4ююз4887100 0.1 1014642
12:00+7ююз5771100 0.1 10151132
15:00+8ююз4767100 0.3 10161143
18:00+8ююз487587 0.1 1016766
21:00+4ю3109563 0.1 1018312
23 апреля, пт
пт2300:00+3ю4129584 0.0 1019363
03:00+2ю310955 0.0 1020255
06:00+3ююв3118832 0.0 1020309
09:00+9ююв59667 0.0 1020632
12:00+10ююв51168100 0.0 1020794
15:00+13ю586195 0.0 10191366
18:00+12ююв59716 0.0 1019819
21:00+9ююв41287100 0.4 1019448
24 апреля, сб
сб2400:00+8юв399477 0.4 1019301
03:00+6юв399495 0.4 1018297
06:00+7юв41086100 0.0 1018364
09:00+11юв696589 0.0 1016806
12:00+13юв675378 0.3 10141675
15:00+13юв585285 1.1 10121810
18:00+11юв596210 0.1 10111130
21:00+7вюв412735 0.1 1011585
25 апреля, вс
вс2500:00+6в4118051 0.0 1009401
03:00+6в41082100 0.0 1007353
06:00+5в41186100 0.0 1005517
09:00+7в4879100 0.1 1004746
12:00+7вюв4779100 0.1 1003891
15:00+4ююз4695100 1.1 1004632
18:00+3юз3797100 1.9 1005607
21:00+3юз3897100 2.4 1006577